Location: Asheville, NC
(35.6000°N, 82.5500°W)
Time: 20:35:14
(UTC-04:00)

Vanguard 2 - Pass Details

Date: 10 March 2018
Orbit: 553 x 2939 km, 32.9° (Epoch: 20 June)

Event Time Altitude Azimuth Distance (km) Brightness Sun altitude
Rises 10:02:40 0° 214° (SSW) 5,487 11.9 35.9°
Reaches altitude 10° 10:06:14 10° 206° (SSW) 4,779 11.8 36.4°
Maximum altitude 10:19:20 40° 143° (SE) 3,623 13.6 38.5°
Drops below altitude 10° 10:35:06 10° 82° (E) 5,742 12.5 40.7°
Sets 10:39:49 0° 76° (ENE) 6,663 12.6 41.4°
